ES'HAIL 2

Last updated on May 23, 2019, 3:05 a.m. UTC

1 43700U 18090A   19142.82770337  .00000136  00000-0  00000+0 0  9995
2 43700   0.0112 289.5724 0002724 171.9855 102.3781  1.00273340  2024
UTC
Height (km)
Latitude
Longitude
Inclination
Orbital Period
UTC large
Height (km)
Speed (km/s)
/
Latitude / Longitude
Inclination (degrees)
Orbital Period (minutes)
Azimuth
Elevation
Range (km)
Doppler Factor
iOS Compass Heading
iOS Angle

Next 30 passes for location: Hong Kong

Rise time Rise Azimuth (degrees) Set time Set Azimuth (degrees) Duration Max altitude (degrees)

No matching passes for this satellites